Regional Weather Roundup
Issued by NWS Sioux Falls, SD

Home | Current Version | Previous Version | Text Only | Print | Product List | Glossary On
Versions: 1 2 3 4 5 6 7 8 9 10 11 12 13 14 15 16 17 18 19 20 21 22 23 24 25 26 27 28 29 30 31 32 33 34 35 36 37 38 39 40 41 42 43 44 45 46 47 48 49 50
000
ASUS43 KFSD 201510
RWRFSD

WEATHER ROUNDUP FOR SE SOUTH DAKOTA/SW MINNESOTA/NW IOWA
NATIONAL WEATHER SERVICE SIOUX FALLS SD
900 AM CST SAT DEC 20 2014

NOTE: "FAIR" INDICATES FEW OR NO CLOUDS BELOW 12,000 FEET WITH NO
SIGNIFICANT WEATHER AND OR OBSTRUCTIONS TO VISIBILITY.


SDZ038>040-050-052>070-201600-
SOUTHEAST SOUTH DAKOTA

CITY           SKY/WX    TMP DP  RH WIND       PRES   REMARKS
CHAMBERLAIN    CLOUDY    13  11  92 E5        29.98F FOG     WCI   5
HURON          FOG       25  24  96 S9        30.03S VSB 1/2 WCI  15
MADISON        CLOUDY    28  28 100 S12G17    30.03S FOG     WCI  18
MITCHELL       FOG       27  27 100 S10       30.05S VSB 1/4 WCI  17
SIOUX FALLS    CLOUDY    32  29  88 S12       30.06S FOG     WCI  23
WINNER         FAIR      31  18  58 S7        29.95F WCI  24
YANKTON        CLOUDY    34  28  80 SE9       30.07S WCI  26
$$

MNZ071-072-080-081-089-090-097-098-201600-
SOUTHWEST MINNESOTA

CITY           SKY/WX    TMP DP  RH WIND       PRES   REMARKS
FAIRMONT       CLOUDY    28  25  86 S9        30.12R WCI  20
JACKSON        CLOUDY    30  28  93 S8        30.10S FOG     WCI  23
LUVERNE        CLOUDY    32  30  93 S9        30.08S FOG     WCI  24
MARSHALL       CLOUDY    30  27  86 SW12      30.08R WCI  21
MONTEVIDEO     CLOUDY    30  30 100 SW7       30.08S FOG     WCI  23
PIPESTONE      CLOUDY    30  28  93 SW5       30.04R FOG     WCI  25
REDWOOD FALLS  CLOUDY    31  28  89 S10       30.10R WCI  22
TRACY          CLOUDY    32  29  90 S9        30.08R FOG     WCI  24
WINDOM         CLOUDY    30  28  93 CALM      30.09R FOG
WORTHINGTON    CLOUDY    28  27  93 S9        30.08S WCI  20
$$

IAZ001>003-012>014-020>022-031-032-NEZ013-014-SDZ071-201600-
NORTHWEST IOWA

CITY           SKY/WX    TMP DP  RH WIND       PRES   REMARKS
CHEROKEE       CLOUDY    30  30 100 S7        30.12R FOG     WCI  23
DENISON        CLOUDY    30  30 100 S8        30.10S FOG     WCI  23
ESTHERVILLE    CLOUDY    28  26  92 S10       30.11S WCI  19
LE MARS        CLOUDY    32  32 100 S7        30.11R FOG     WCI  26
ORANGE CITY    CLOUDY    32  30  93 S6        30.09S FOG     WCI  26
SHELDON        CLOUDY    30  30 100 S8        30.08S FOG     WCI  23
SIOUX CITY     CLOUDY    32  30  92 S6        30.11S FOG     WCI  26
SPENCER        CLOUDY    30  28  92 S9        30.11S FOG     WCI  22
STORM LAKE     FOG       28  28 100 S9        30.11S VSB 1   WCI  20
$$

ABBREVIATIONS USED IN REMARKS
   TC - TEMPERATURE IN CELSIUS
  WCI - WIND CHILL INDEX
   HX - HEAT INDEX
  VSB - VISIBILITY




USA.gov is the U.S. government's official web portal to all federal, state and local government web resources and services.